Year,Month,Day,Hour,Minute,Value (Times are PST for temperature in C)
2017,09,04,00,00,25.40
2017,09,04,00,01,25.40
2017,09,04,00,02,25.40
2017,09,04,00,03,25.40
2017,09,04,00,04,25.40
2017,09,04,00,05,25.40
2017,09,04,00,06,25.40
2017,09,04,00,07,25.40
2017,09,04,00,08,25.40
2017,09,04,00,09,25.40
2017,09,04,00,10,25.40
2017,09,04,00,11,25.30
2017,09,04,00,12,25.30
2017,09,04,00,13,25.30
2017,09,04,00,14,25.40
2017,09,04,00,15,25.40
2017,09,04,00,16,25.40
2017,09,04,00,17,25.30
2017,09,04,00,18,25.30
2017,09,04,00,19,25.30
2017,09,04,00,20,25.30
2017,09,04,00,21,25.20
2017,09,04,00,22,25.20
2017,09,04,00,23,25.10
2017,09,04,00,24,25.10
2017,09,04,00,25,25.10
2017,09,04,00,26,25.00
2017,09,04,00,27,25.00
2017,09,04,00,28,25.00
2017,09,04,00,29,24.90
2017,09,04,00,30,24.90
2017,09,04,00,31,24.90
2017,09,04,00,32,24.80
2017,09,04,00,33,24.80
2017,09,04,00,34,24.70
2017,09,04,00,35,24.70
2017,09,04,00,36,24.60
2017,09,04,00,37,24.60
2017,09,04,00,38,24.60
2017,09,04,00,39,24.50
2017,09,04,00,40,24.50
2017,09,04,00,41,24.50
2017,09,04,00,42,24.50
2017,09,04,00,43,24.50
2017,09,04,00,44,24.50
2017,09,04,00,45,24.50
2017,09,04,00,46,24.50
2017,09,04,00,47,24.50
2017,09,04,00,48,24.50
2017,09,04,00,49,24.50
2017,09,04,00,50,24.60
2017,09,04,00,51,24.70
2017,09,04,00,52,24.70
2017,09,04,00,53,24.70
2017,09,04,00,54,24.70
2017,09,04,00,55,24.80
2017,09,04,00,56,24.80
2017,09,04,00,57,24.80
2017,09,04,00,58,24.80
2017,09,04,00,59,24.80
2017,09,04,01,00,24.80
2017,09,04,01,01,24.80
2017,09,04,01,02,24.80
2017,09,04,01,03,24.80
2017,09,04,01,04,24.80
2017,09,04,01,05,24.80
2017,09,04,01,06,24.80
2017,09,04,01,07,24.80
2017,09,04,01,08,24.80
2017,09,04,01,09,24.80
2017,09,04,01,10,24.80
2017,09,04,01,11,24.80
2017,09,04,01,12,24.80
2017,09,04,01,13,24.80
2017,09,04,01,14,24.70
2017,09,04,01,15,24.70
2017,09,04,01,16,24.70
2017,09,04,01,17,24.70
2017,09,04,01,18,24.70
2017,09,04,01,19,24.60
2017,09,04,01,20,24.60
2017,09,04,01,21,24.60
2017,09,04,01,22,24.60
2017,09,04,01,23,24.60
2017,09,04,01,24,24.60
2017,09,04,01,25,24.70
2017,09,04,01,26,24.70
2017,09,04,01,27,24.70
2017,09,04,01,28,24.80
2017,09,04,01,29,24.80
2017,09,04,01,30,24.80
2017,09,04,01,31,24.80
2017,09,04,01,32,24.80
2017,09,04,01,33,24.80
2017,09,04,01,34,24.80
2017,09,04,01,35,24.80
2017,09,04,01,36,24.80
2017,09,04,01,37,24.80
2017,09,04,01,38,24.80
2017,09,04,01,39,24.80
2017,09,04,01,40,24.80
2017,09,04,01,41,24.80
2017,09,04,01,42,24.80
2017,09,04,01,43,24.80
2017,09,04,01,44,24.80
2017,09,04,01,45,24.80
2017,09,04,01,46,24.80
2017,09,04,01,47,24.80
2017,09,04,01,48,24.80
2017,09,04,01,49,24.80
2017,09,04,01,50,24.80
2017,09,04,01,51,24.80
2017,09,04,01,52,24.70
2017,09,04,01,53,24.70
2017,09,04,01,54,24.70
2017,09,04,01,55,24.70
2017,09,04,01,56,24.70
2017,09,04,01,57,24.70
2017,09,04,01,58,24.70
2017,09,04,01,59,24.70
2017,09,04,02,00,24.70
2017,09,04,02,01,24.70
2017,09,04,02,02,24.70
2017,09,04,02,03,24.70
2017,09,04,02,04,24.70
2017,09,04,02,05,24.70
2017,09,04,02,06,24.70
2017,09,04,02,07,24.70
2017,09,04,02,08,24.70
2017,09,04,02,09,24.70
2017,09,04,02,10,24.70
2017,09,04,02,11,24.70
2017,09,04,02,12,24.70
2017,09,04,02,13,24.70
2017,09,04,02,14,24.70
2017,09,04,02,15,24.70
2017,09,04,02,16,24.70
2017,09,04,02,17,24.70
2017,09,04,02,18,24.70
2017,09,04,02,19,24.70
2017,09,04,02,20,24.70
2017,09,04,02,21,24.70
2017,09,04,02,22,24.70
2017,09,04,02,23,24.80
2017,09,04,02,24,24.70
2017,09,04,02,25,24.70
2017,09,04,02,26,24.70
2017,09,04,02,27,24.70
2017,09,04,02,28,24.70
2017,09,04,02,29,24.70
2017,09,04,02,30,24.70
2017,09,04,02,31,24.60
2017,09,04,02,32,24.60
2017,09,04,02,33,24.50
2017,09,04,02,34,24.50
2017,09,04,02,35,24.40
2017,09,04,02,36,24.40
2017,09,04,02,37,24.30
2017,09,04,02,38,24.30
2017,09,04,02,39,24.30
2017,09,04,02,40,24.20
2017,09,04,02,41,24.20
2017,09,04,02,42,24.20
2017,09,04,02,43,24.20
2017,09,04,02,44,24.20
2017,09,04,02,45,24.20
2017,09,04,02,46,24.20
2017,09,04,02,47,24.10
2017,09,04,02,48,24.10
2017,09,04,02,49,24.10
2017,09,04,02,50,24.10
2017,09,04,02,51,24.10
2017,09,04,02,52,24.10
2017,09,04,02,53,24.10
2017,09,04,02,54,24.10
2017,09,04,02,55,24.10
2017,09,04,02,56,24.10
2017,09,04,02,57,24.10
2017,09,04,02,58,24.10
2017,09,04,02,59,24.00
2017,09,04,03,00,23.90
2017,09,04,03,01,23.90
2017,09,04,03,02,23.90
2017,09,04,03,03,23.90
2017,09,04,03,04,23.90
2017,09,04,03,05,23.90
2017,09,04,03,06,23.90
2017,09,04,03,07,23.90
2017,09,04,03,08,23.90
2017,09,04,03,09,23.90
2017,09,04,03,10,23.90
2017,09,04,03,11,23.90
2017,09,04,03,12,23.90
2017,09,04,03,13,23.90
2017,09,04,03,14,23.90
2017,09,04,03,15,23.90
2017,09,04,03,16,23.80
2017,09,04,03,17,23.80
2017,09,04,03,18,23.80
2017,09,04,03,19,23.80
2017,09,04,03,20,23.70
2017,09,04,03,21,23.70
2017,09,04,03,22,23.70
2017,09,04,03,23,23.70
2017,09,04,03,24,23.60
2017,09,04,03,25,23.60
2017,09,04,03,26,23.60
2017,09,04,03,27,23.50
2017,09,04,03,28,23.50
2017,09,04,03,29,23.50
2017,09,04,03,30,23.40
2017,09,04,03,31,23.40
2017,09,04,03,32,23.40
2017,09,04,03,33,23.40
2017,09,04,03,34,23.40
2017,09,04,03,35,23.40
2017,09,04,03,36,23.30
2017,09,04,03,37,23.30
2017,09,04,03,38,23.20
2017,09,04,03,39,23.20
2017,09,04,03,40,23.10
2017,09,04,03,41,23.10
2017,09,04,03,42,23.10
2017,09,04,03,43,23.10
2017,09,04,03,44,23.10
2017,09,04,03,45,23.10
2017,09,04,03,46,23.10
2017,09,04,03,47,23.10
2017,09,04,03,48,23.10
2017,09,04,03,49,23.10
2017,09,04,03,50,23.20
2017,09,04,03,51,23.20
2017,09,04,03,52,23.20
2017,09,04,03,53,23.20
2017,09,04,03,54,23.20
2017,09,04,03,55,23.20
2017,09,04,03,56,23.20
2017,09,04,03,57,23.20
2017,09,04,03,58,23.20
2017,09,04,03,59,23.20
2017,09,04,04,00,23.20
2017,09,04,04,01,23.20
2017,09,04,04,02,23.20
2017,09,04,04,03,23.10
2017,09,04,04,04,23.10
2017,09,04,04,05,23.10
2017,09,04,04,06,23.10
2017,09,04,04,07,23.10
2017,09,04,04,08,23.00
2017,09,04,04,09,23.00
2017,09,04,04,10,23.00
2017,09,04,04,11,23.00
2017,09,04,04,12,23.00
2017,09,04,04,13,23.00
2017,09,04,04,14,23.00
2017,09,04,04,15,23.00
2017,09,04,04,16,23.00
2017,09,04,04,17,23.00
2017,09,04,04,18,23.00
2017,09,04,04,19,23.00
2017,09,04,04,20,23.00
2017,09,04,04,21,23.00
2017,09,04,04,22,23.00
2017,09,04,04,23,23.00
2017,09,04,04,24,23.00
2017,09,04,04,25,23.00
2017,09,04,04,26,23.00
2017,09,04,04,27,23.00
2017,09,04,04,28,22.90
2017,09,04,04,29,22.90
2017,09,04,04,30,22.90
2017,09,04,04,31,22.90
2017,09,04,04,32,22.90
2017,09,04,04,33,22.90
2017,09,04,04,34,22.90
2017,09,04,04,35,22.90
2017,09,04,04,36,22.90
2017,09,04,04,37,22.90
2017,09,04,04,38,22.90
2017,09,04,04,39,22.90
2017,09,04,04,40,22.90
2017,09,04,04,41,22.90
2017,09,04,04,42,22.90
2017,09,04,04,43,22.90
2017,09,04,04,44,22.90
2017,09,04,04,45,22.90
2017,09,04,04,46,22.90
2017,09,04,04,47,22.90
2017,09,04,04,48,22.90
2017,09,04,04,49,22.90
2017,09,04,04,50,22.90
2017,09,04,04,51,22.90
2017,09,04,04,52,22.80
2017,09,04,04,53,22.80
2017,09,04,04,54,22.80
2017,09,04,04,55,22.80
2017,09,04,04,56,22.80
2017,09,04,04,57,22.80
2017,09,04,04,58,22.80
2017,09,04,04,59,22.80
2017,09,04,05,00,22.80
2017,09,04,05,01,22.70
2017,09,04,05,02,22.70
2017,09,04,05,03,22.70
2017,09,04,05,04,22.70
2017,09,04,05,05,22.70
2017,09,04,05,06,22.70
2017,09,04,05,07,22.60
2017,09,04,05,08,22.60
2017,09,04,05,09,22.60
2017,09,04,05,10,22.50
2017,09,04,05,11,22.50
2017,09,04,05,12,22.50
2017,09,04,05,13,22.50
2017,09,04,05,14,22.50
2017,09,04,05,15,22.50
2017,09,04,05,16,22.40
2017,09,04,05,17,22.40
2017,09,04,05,18,22.40
2017,09,04,05,19,22.40
2017,09,04,05,20,22.30
2017,09,04,05,21,22.30
2017,09,04,05,22,22.30
2017,09,04,05,23,22.30
2017,09,04,05,24,22.30
2017,09,04,05,25,22.20
2017,09,04,05,26,22.20
2017,09,04,05,27,22.20
2017,09,04,05,28,22.20
2017,09,04,05,29,22.30
2017,09,04,05,30,22.30
2017,09,04,05,31,22.30
2017,09,04,05,32,22.30
2017,09,04,05,33,22.30
2017,09,04,05,34,22.30
2017,09,04,05,35,22.30
2017,09,04,05,36,22.20
2017,09,04,05,37,22.20
2017,09,04,05,38,22.20
2017,09,04,05,39,22.20
2017,09,04,05,40,22.10
2017,09,04,05,41,22.10
2017,09,04,05,42,22.10
2017,09,04,05,43,22.10
2017,09,04,05,44,22.10
2017,09,04,05,45,22.10
2017,09,04,05,46,22.10
2017,09,04,05,47,22.10
2017,09,04,05,48,22.10
2017,09,04,05,49,22.10
2017,09,04,05,50,22.10
2017,09,04,05,51,22.10
2017,09,04,05,52,22.10
2017,09,04,05,53,22.00
2017,09,04,05,54,22.00
2017,09,04,05,55,22.00
2017,09,04,05,56,22.00
2017,09,04,05,57,22.00
2017,09,04,05,58,22.00
2017,09,04,05,59,21.90
2017,09,04,06,00,21.90
2017,09,04,06,01,21.90
2017,09,04,06,02,21.90
2017,09,04,06,03,21.90
2017,09,04,06,04,21.90
2017,09,04,06,05,21.80
2017,09,04,06,06,21.80
2017,09,04,06,07,21.80
2017,09,04,06,08,21.80
2017,09,04,06,09,21.80
2017,09,04,06,10,21.70
2017,09,04,06,11,21.70
2017,09,04,06,12,21.70
2017,09,04,06,13,21.70
2017,09,04,06,14,21.70
2017,09,04,06,15,21.70
2017,09,04,06,16,21.70
2017,09,04,06,17,21.70
2017,09,04,06,18,21.70
2017,09,04,06,19,21.70
2017,09,04,06,20,21.70
2017,09,04,06,21,21.70
2017,09,04,06,22,21.70
2017,09,04,06,23,21.70
2017,09,04,06,24,21.70
2017,09,04,06,25,21.60
2017,09,04,06,26,21.60
2017,09,04,06,27,21.60
2017,09,04,06,28,21.60
2017,09,04,06,29,21.60
2017,09,04,06,30,21.60
2017,09,04,06,31,21.60
2017,09,04,06,32,21.60
2017,09,04,06,33,21.60
2017,09,04,06,34,21.60
2017,09,04,06,35,21.60
2017,09,04,06,36,21.60
2017,09,04,06,37,21.60
2017,09,04,06,38,21.70
2017,09,04,06,39,21.70
2017,09,04,06,40,21.70
2017,09,04,06,41,21.70
2017,09,04,06,42,21.70
2017,09,04,06,43,21.70
2017,09,04,06,44,21.70
2017,09,04,06,45,21.70
2017,09,04,06,46,21.70
2017,09,04,06,47,21.70
2017,09,04,06,48,21.70
2017,09,04,06,49,21.70
2017,09,04,06,50,21.70
2017,09,04,06,51,21.70
2017,09,04,06,52,21.80
2017,09,04,06,53,21.80
2017,09,04,06,54,21.80
2017,09,04,06,55,21.80
2017,09,04,06,56,21.80
2017,09,04,06,57,21.70
2017,09,04,06,58,21.80
2017,09,04,06,59,21.70
2017,09,04,07,00,21.70
2017,09,04,07,01,21.70
2017,09,04,07,02,21.70
2017,09,04,07,03,21.70
2017,09,04,07,04,21.70
2017,09,04,07,05,21.70
2017,09,04,07,06,21.70
2017,09,04,07,07,21.70
2017,09,04,07,08,21.60
2017,09,04,07,09,21.60
2017,09,04,07,10,21.60
2017,09,04,07,11,21.60
2017,09,04,07,12,21.60
2017,09,04,07,13,21.60
2017,09,04,07,14,21.60
2017,09,04,07,15,21.60
2017,09,04,07,16,21.60
2017,09,04,07,17,21.60
2017,09,04,07,18,21.50
2017,09,04,07,19,21.50
2017,09,04,07,20,21.50
2017,09,04,07,21,21.60
2017,09,04,07,22,21.50
2017,09,04,07,23,21.60
2017,09,04,07,24,21.60
2017,09,04,07,25,21.60
2017,09,04,07,26,21.60
2017,09,04,07,27,21.60
2017,09,04,07,28,21.60
2017,09,04,07,29,21.60
2017,09,04,07,30,21.60
2017,09,04,07,31,21.60
2017,09,04,07,32,21.60
2017,09,04,07,33,21.70
2017,09,04,07,34,21.70
2017,09,04,07,35,21.70
2017,09,04,07,36,21.80
2017,09,04,07,37,21.80
2017,09,04,07,38,21.80
2017,09,04,07,39,21.80
2017,09,04,07,40,21.90
2017,09,04,07,41,21.90
2017,09,04,07,42,21.90
2017,09,04,07,43,21.90
2017,09,04,07,44,22.00
2017,09,04,07,45,22.00
2017,09,04,07,46,22.00
2017,09,04,07,47,22.00
2017,09,04,07,48,22.10
2017,09,04,07,49,22.10
2017,09,04,07,50,22.10
2017,09,04,07,51,22.10
2017,09,04,07,52,22.10
2017,09,04,07,53,22.10
2017,09,04,07,54,22.10
2017,09,04,07,55,22.10
2017,09,04,07,56,22.10
2017,09,04,07,57,22.10
2017,09,04,07,58,22.10
2017,09,04,07,59,22.10
2017,09,04,08,00,22.20
2017,09,04,08,01,22.20
2017,09,04,08,02,22.20
2017,09,04,08,03,22.20
2017,09,04,08,04,22.20
2017,09,04,08,05,22.30
2017,09,04,08,06,22.30
2017,09,04,08,07,22.30
2017,09,04,08,08,22.30
2017,09,04,08,09,22.30
2017,09,04,08,10,22.40
2017,09,04,08,11,22.40
2017,09,04,08,12,22.40
2017,09,04,08,13,22.40
2017,09,04,08,14,22.50
2017,09,04,08,15,22.50
2017,09,04,08,16,22.50
2017,09,04,08,17,22.60
2017,09,04,08,18,22.60
2017,09,04,08,19,22.60
2017,09,04,08,20,22.60
2017,09,04,08,21,22.60
2017,09,04,08,22,22.60
2017,09,04,08,23,22.70
2017,09,04,08,24,22.70
2017,09,04,08,25,22.70
2017,09,04,08,26,22.70
2017,09,04,08,27,22.80
2017,09,04,08,28,22.80
2017,09,04,08,29,22.80
2017,09,04,08,30,22.80
2017,09,04,08,31,22.80
2017,09,04,08,32,22.80
2017,09,04,08,33,22.80
2017,09,04,08,34,22.80
2017,09,04,08,35,22.80
2017,09,04,08,36,22.80
2017,09,04,08,37,22.90
2017,09,04,08,38,22.90
2017,09,04,08,39,22.90
2017,09,04,08,40,22.90
2017,09,04,08,41,22.90
2017,09,04,08,42,23.00
2017,09,04,08,43,23.00
2017,09,04,08,44,23.00
2017,09,04,08,45,23.10
2017,09,04,08,46,23.10
2017,09,04,08,47,23.10
2017,09,04,08,48,23.20
2017,09,04,08,49,23.20
2017,09,04,08,50,23.20
2017,09,04,08,51,23.30
2017,09,04,08,52,23.30
2017,09,04,08,53,23.30
2017,09,04,08,54,23.40
2017,09,04,08,55,23.40
2017,09,04,08,56,23.40
2017,09,04,08,57,23.40
2017,09,04,08,58,23.40
2017,09,04,08,59,23.50
2017,09,04,09,00,23.50
2017,09,04,09,01,23.50
2017,09,04,09,02,23.60
2017,09,04,09,03,23.60
2017,09,04,09,04,23.60
2017,09,04,09,05,23.60
2017,09,04,09,06,23.60
2017,09,04,09,07,23.60
2017,09,04,09,08,23.70
2017,09,04,09,09,23.70
2017,09,04,09,10,23.70
2017,09,04,09,11,23.70
2017,09,04,09,12,23.80
2017,09,04,09,13,23.80
2017,09,04,09,14,23.80
2017,09,04,09,15,23.80
2017,09,04,09,16,23.80
2017,09,04,09,17,23.80
2017,09,04,09,18,23.80
2017,09,04,09,19,23.90
2017,09,04,09,20,23.90
2017,09,04,09,21,23.90
2017,09,04,09,22,24.00
2017,09,04,09,23,24.00
2017,09,04,09,24,24.10
2017,09,04,09,25,24.10
2017,09,04,09,26,24.10
2017,09,04,09,27,24.20
2017,09,04,09,28,24.20
2017,09,04,09,29,24.20
2017,09,04,09,30,24.20
2017,09,04,09,31,24.30
2017,09,04,09,32,24.30
2017,09,04,09,33,24.30
2017,09,04,09,34,24.30
2017,09,04,09,35,24.40
2017,09,04,09,36,24.40
2017,09,04,09,37,24.40
2017,09,04,09,38,24.40
2017,09,04,09,39,24.40
2017,09,04,09,40,24.40
2017,09,04,09,41,24.50
2017,09,04,09,42,24.50
2017,09,04,09,43,24.50
2017,09,04,09,44,24.60
2017,09,04,09,45,24.60
2017,09,04,09,46,24.60
2017,09,04,09,47,24.70
2017,09,04,09,48,24.70
2017,09,04,09,49,24.80
2017,09,04,09,50,24.80
2017,09,04,09,51,24.80
2017,09,04,09,52,24.80
2017,09,04,09,53,24.70
2017,09,04,09,54,24.70
2017,09,04,09,55,24.60
2017,09,04,09,56,24.60
2017,09,04,09,57,24.60
2017,09,04,09,58,24.50
2017,09,04,09,59,24.50
2017,09,04,10,00,24.40
2017,09,04,10,01,24.40
2017,09,04,10,02,24.40
2017,09,04,10,03,24.40
2017,09,04,10,04,24.40
2017,09,04,10,05,24.40
2017,09,04,10,06,24.40
2017,09,04,10,07,24.50
2017,09,04,10,08,24.50
2017,09,04,10,09,24.60
2017,09,04,10,10,24.60
2017,09,04,10,11,24.60
2017,09,04,10,12,24.70
2017,09,04,10,13,24.60
2017,09,04,10,14,24.50
2017,09,04,10,15,24.50
2017,09,04,10,16,24.40
2017,09,04,10,17,24.40
2017,09,04,10,18,24.40
2017,09,04,10,19,24.40
2017,09,04,10,20,24.50
2017,09,04,10,21,24.50
2017,09,04,10,22,24.60
2017,09,04,10,23,24.60
2017,09,04,10,24,24.70
2017,09,04,10,25,24.70
2017,09,04,10,26,24.70
2017,09,04,10,27,24.70
2017,09,04,10,28,24.80
2017,09,04,10,29,24.80
2017,09,04,10,30,24.80
2017,09,04,10,31,24.80
2017,09,04,10,32,24.70
2017,09,04,10,33,24.70
2017,09,04,10,34,24.70
2017,09,04,10,35,24.70
2017,09,04,10,36,24.70
2017,09,04,10,37,24.70
2017,09,04,10,38,24.70
2017,09,04,10,39,24.60
2017,09,04,10,40,24.60
2017,09,04,10,41,24.60
2017,09,04,10,42,24.60
2017,09,04,10,43,24.50
2017,09,04,10,44,24.50
2017,09,04,10,45,24.50
2017,09,04,10,46,24.40
2017,09,04,10,47,24.40
2017,09,04,10,48,24.40
2017,09,04,10,49,24.30
2017,09,04,10,50,24.30
2017,09,04,10,51,24.30
2017,09,04,10,52,24.30
2017,09,04,10,53,24.30
2017,09,04,10,54,24.30
2017,09,04,10,55,24.30
2017,09,04,10,56,24.30
2017,09,04,10,57,24.30
2017,09,04,10,58,24.20
2017,09,04,10,59,24.20
2017,09,04,11,00,24.20
2017,09,04,11,01,24.20
2017,09,04,11,02,24.10
2017,09,04,11,03,24.10
2017,09,04,11,04,24.20
2017,09,04,11,05,24.20
2017,09,04,11,06,24.20
2017,09,04,11,07,24.10
2017,09,04,11,08,24.20
2017,09,04,11,09,24.20
2017,09,04,11,10,24.20
2017,09,04,11,11,24.30
2017,09,04,11,12,24.30
2017,09,04,11,13,24.40
2017,09,04,11,14,24.50
2017,09,04,11,15,24.50
2017,09,04,11,16,24.50
2017,09,04,11,17,24.60
2017,09,04,11,18,24.60
2017,09,04,11,19,24.60
2017,09,04,11,20,24.60
2017,09,04,11,21,24.50
2017,09,04,11,22,24.50
2017,09,04,11,23,24.40
2017,09,04,11,24,24.40
2017,09,04,11,25,24.40
2017,09,04,11,26,24.40
2017,09,04,11,27,24.40
2017,09,04,11,28,24.50
2017,09,04,11,29,24.50
2017,09,04,11,30,24.50
2017,09,04,11,31,24.60
2017,09,04,11,32,24.60
2017,09,04,11,33,24.70
2017,09,04,11,34,24.70
2017,09,04,11,35,24.80
2017,09,04,11,36,24.80
2017,09,04,11,37,24.90
2017,09,04,11,38,24.90
2017,09,04,11,39,24.90
2017,09,04,11,40,25.00
2017,09,04,11,41,25.10
2017,09,04,11,42,25.10
2017,09,04,11,43,25.10
2017,09,04,11,44,25.20
2017,09,04,11,45,25.20
2017,09,04,11,46,25.20
2017,09,04,11,47,25.10
2017,09,04,11,48,25.10
2017,09,04,11,49,25.10
2017,09,04,11,50,25.10
2017,09,04,11,51,25.10
2017,09,04,11,52,25.20
2017,09,04,11,53,25.30
2017,09,04,11,54,25.30
2017,09,04,11,55,25.40
2017,09,04,11,56,25.40
2017,09,04,11,57,25.30
2017,09,04,11,58,25.30
2017,09,04,11,59,25.20
2017,09,04,12,00,25.20
2017,09,04,12,01,25.10
2017,09,04,12,02,25.10
2017,09,04,12,03,25.10
2017,09,04,12,04,25.10
2017,09,04,12,05,25.10
2017,09,04,12,06,25.10
2017,09,04,12,07,25.10
2017,09,04,12,08,25.10
2017,09,04,12,09,25.10
2017,09,04,12,10,25.10
2017,09,04,12,11,25.20
2017,09,04,12,12,25.20
2017,09,04,12,13,25.20
2017,09,04,12,14,25.30
2017,09,04,12,15,25.30
2017,09,04,12,16,25.40
2017,09,04,12,17,25.50
2017,09,04,12,18,25.60
2017,09,04,12,19,25.70
2017,09,04,12,20,25.80
2017,09,04,12,21,25.90
2017,09,04,12,22,25.90
2017,09,04,12,23,25.90
2017,09,04,12,24,25.90
2017,09,04,12,25,25.90
2017,09,04,12,26,25.90
2017,09,04,12,27,25.80
2017,09,04,12,28,25.80
2017,09,04,12,29,25.80
2017,09,04,12,30,25.70
2017,09,04,12,31,25.70
2017,09,04,12,32,25.70
2017,09,04,12,33,25.80
2017,09,04,12,34,25.80
2017,09,04,12,35,25.90
2017,09,04,12,36,25.90
2017,09,04,12,37,26.00
2017,09,04,12,38,26.10
2017,09,04,12,39,26.10
2017,09,04,12,40,26.20
2017,09,04,12,41,26.30
2017,09,04,12,42,26.40
2017,09,04,12,43,26.50
2017,09,04,12,44,26.60
2017,09,04,12,45,26.70
2017,09,04,12,46,26.70
2017,09,04,12,47,26.80
2017,09,04,12,48,26.90
2017,09,04,12,49,27.00
2017,09,04,12,50,27.10
2017,09,04,12,51,27.20
2017,09,04,12,52,27.30
2017,09,04,12,53,27.30
2017,09,04,12,54,27.30
2017,09,04,12,55,27.30
2017,09,04,12,56,27.40
2017,09,04,12,57,27.50
2017,09,04,12,58,27.60
2017,09,04,12,59,27.70
2017,09,04,13,00,27.80
2017,09,04,13,01,27.80
2017,09,04,13,02,27.90
2017,09,04,13,03,27.90
2017,09,04,13,04,28.00
2017,09,04,13,05,28.00
2017,09,04,13,06,28.10
2017,09,04,13,07,28.20
2017,09,04,13,08,28.30
2017,09,04,13,09,28.30
2017,09,04,13,10,28.30
2017,09,04,13,11,28.30
2017,09,04,13,12,28.20
2017,09,04,13,13,28.20
2017,09,04,13,14,28.20
2017,09,04,13,15,28.20
2017,09,04,13,16,28.20
2017,09,04,13,17,28.10
2017,09,04,13,18,28.10
2017,09,04,13,19,28.10
2017,09,04,13,20,28.10
2017,09,04,13,21,28.00
2017,09,04,13,22,28.00
2017,09,04,13,23,27.90
2017,09,04,13,24,27.90
2017,09,04,13,25,27.90
2017,09,04,13,26,27.90
2017,09,04,13,27,27.90
2017,09,04,13,28,27.90
2017,09,04,13,29,27.90
2017,09,04,13,30,28.00
2017,09,04,13,31,28.00
2017,09,04,13,32,28.10
2017,09,04,13,33,28.20
2017,09,04,13,34,28.20
2017,09,04,13,35,28.20
2017,09,04,13,36,28.30
2017,09,04,13,37,28.30
2017,09,04,13,38,28.40
2017,09,04,13,39,28.40
2017,09,04,13,40,28.40
2017,09,04,13,41,28.40
2017,09,04,13,42,28.50
2017,09,04,13,43,28.50
2017,09,04,13,44,28.50
2017,09,04,13,45,28.60
2017,09,04,13,46,28.60
2017,09,04,13,47,28.70
2017,09,04,13,48,28.70
2017,09,04,13,49,28.80
2017,09,04,13,50,28.80
2017,09,04,13,51,28.90
2017,09,04,13,52,29.00
2017,09,04,13,53,29.10
2017,09,04,13,54,29.20
2017,09,04,13,55,29.20
2017,09,04,13,56,29.30
2017,09,04,13,57,29.40
2017,09,04,13,58,29.40
2017,09,04,13,59,29.40
2017,09,04,14,00,29.40
2017,09,04,14,01,29.40
2017,09,04,14,02,29.40
2017,09,04,14,03,29.40
2017,09,04,14,04,29.50
2017,09,04,14,05,29.40
2017,09,04,14,06,29.40
2017,09,04,14,07,29.40
2017,09,04,14,08,29.40
2017,09,04,14,09,29.40
2017,09,04,14,10,29.40
2017,09,04,14,11,29.50
2017,09,04,14,12,29.50
2017,09,04,14,13,29.60
2017,09,04,14,14,29.60
2017,09,04,14,15,29.60
2017,09,04,14,16,29.50
2017,09,04,14,17,29.50
2017,09,04,14,18,29.40
2017,09,04,14,19,29.50
2017,09,04,14,20,29.50
2017,09,04,14,21,29.50
2017,09,04,14,22,29.60
2017,09,04,14,23,29.60
2017,09,04,14,24,29.60
2017,09,04,14,25,29.60
2017,09,04,14,26,29.60
2017,09,04,14,27,29.60
2017,09,04,14,28,29.60
2017,09,04,14,29,29.70
2017,09,04,14,30,29.80
2017,09,04,14,31,29.80
2017,09,04,14,32,29.80
2017,09,04,14,33,29.90
2017,09,04,14,34,29.90
2017,09,04,14,35,30.00
2017,09,04,14,36,30.00
2017,09,04,14,37,30.10
2017,09,04,14,38,30.20
2017,09,04,14,39,30.30
2017,09,04,14,40,30.40
2017,09,04,14,41,30.40
2017,09,04,14,42,30.50
2017,09,04,14,43,30.50
2017,09,04,14,44,30.60
2017,09,04,14,45,30.60
2017,09,04,14,46,30.60
2017,09,04,14,47,30.50
2017,09,04,14,48,30.50
2017,09,04,14,49,30.50
2017,09,04,14,50,30.50
2017,09,04,14,51,30.50
2017,09,04,14,52,30.50
2017,09,04,14,53,30.50
2017,09,04,14,54,30.40
2017,09,04,14,55,30.30
2017,09,04,14,56,30.30
2017,09,04,14,57,30.30
2017,09,04,14,58,30.40
2017,09,04,14,59,30.40
2017,09,04,15,00,30.40
2017,09,04,15,01,30.50
2017,09,04,15,02,30.50
2017,09,04,15,03,30.60
2017,09,04,15,04,30.60
2017,09,04,15,05,30.60
2017,09,04,15,06,30.60
2017,09,04,15,07,30.60
2017,09,04,15,08,30.70
2017,09,04,15,09,30.70
2017,09,04,15,10,30.70
2017,09,04,15,11,30.70
2017,09,04,15,12,30.80
2017,09,04,15,13,30.80
2017,09,04,15,14,30.80
2017,09,04,15,15,30.80
2017,09,04,15,16,30.80
2017,09,04,15,17,30.70
2017,09,04,15,18,30.70
2017,09,04,15,19,30.70
2017,09,04,15,20,30.60
2017,09,04,15,21,30.50
2017,09,04,15,22,30.40
2017,09,04,15,23,30.30
2017,09,04,15,24,30.30
2017,09,04,15,25,30.30
2017,09,04,15,26,30.30
2017,09,04,15,27,30.30
2017,09,04,15,28,30.30
2017,09,04,15,29,30.30
2017,09,04,15,30,30.30
2017,09,04,15,31,30.30
2017,09,04,15,32,30.30
2017,09,04,15,33,30.30
2017,09,04,15,34,30.30
2017,09,04,15,35,30.30
2017,09,04,15,36,30.30
2017,09,04,15,37,30.30
2017,09,04,15,38,30.30
2017,09,04,15,39,30.30
2017,09,04,15,40,30.30
2017,09,04,15,41,30.30
2017,09,04,15,42,30.30
2017,09,04,15,43,30.40
2017,09,04,15,44,30.40
2017,09,04,15,45,30.40
2017,09,04,15,46,30.40
2017,09,04,15,47,30.40
2017,09,04,15,48,30.40
2017,09,04,15,49,30.50
2017,09,04,15,50,30.50
2017,09,04,15,51,30.60
2017,09,04,15,52,30.60
2017,09,04,15,53,30.70
2017,09,04,15,54,30.70
2017,09,04,15,55,30.70
2017,09,04,15,56,30.70
2017,09,04,15,57,30.70
2017,09,04,15,58,30.60
2017,09,04,15,59,30.50
2017,09,04,16,00,30.40
2017,09,04,16,01,30.30
2017,09,04,16,02,30.20
2017,09,04,16,03,30.10
2017,09,04,16,04,30.10
2017,09,04,16,05,30.10
2017,09,04,16,06,30.10
2017,09,04,16,07,30.10
2017,09,04,16,08,30.10
2017,09,04,16,09,30.10
2017,09,04,16,10,30.10
2017,09,04,16,11,30.10
2017,09,04,16,12,30.10
2017,09,04,16,13,30.10
2017,09,04,16,14,30.20
2017,09,04,16,15,30.20
2017,09,04,16,16,30.20
2017,09,04,16,17,30.30
2017,09,04,16,18,30.30
2017,09,04,16,19,30.20
2017,09,04,16,20,30.20
2017,09,04,16,21,30.20
2017,09,04,16,22,30.20
2017,09,04,16,23,30.20
2017,09,04,16,24,30.20
2017,09,04,16,25,30.20
2017,09,04,16,26,30.20
2017,09,04,16,27,30.30
2017,09,04,16,28,30.30
2017,09,04,16,29,30.40
2017,09,04,16,30,30.50
2017,09,04,16,31,30.50
2017,09,04,16,32,30.60
2017,09,04,16,33,30.60
2017,09,04,16,34,30.60
2017,09,04,16,35,30.60
2017,09,04,16,36,30.60
2017,09,04,16,37,30.60
2017,09,04,16,38,30.60
2017,09,04,16,39,30.70
2017,09,04,16,40,30.70
2017,09,04,16,41,30.70
2017,09,04,16,42,30.80
2017,09,04,16,43,30.90
2017,09,04,16,44,31.00
2017,09,04,16,45,31.00
2017,09,04,16,46,31.10
2017,09,04,16,47,31.20
2017,09,04,16,48,31.30
2017,09,04,16,49,31.40
2017,09,04,16,50,31.40
2017,09,04,16,51,31.50
2017,09,04,16,52,31.50
2017,09,04,16,53,31.40
2017,09,04,16,54,31.40
2017,09,04,16,55,31.30
2017,09,04,16,56,31.30
2017,09,04,16,57,31.30
2017,09,04,16,58,31.20
2017,09,04,16,59,31.20
2017,09,04,17,00,31.20
2017,09,04,17,01,31.20
2017,09,04,17,02,31.30
2017,09,04,17,03,31.30
2017,09,04,17,04,31.30
2017,09,04,17,05,31.40
2017,09,04,17,06,31.40
2017,09,04,17,07,31.40
2017,09,04,17,08,31.50
2017,09,04,17,09,31.50
2017,09,04,17,10,31.60
2017,09,04,17,11,31.60
2017,09,04,17,12,31.60
2017,09,04,17,13,31.50
2017,09,04,17,14,31.50
2017,09,04,17,15,31.50
2017,09,04,17,16,31.40
2017,09,04,17,17,31.40
2017,09,04,17,18,31.40
2017,09,04,17,19,31.40